Weather History for KLRU - May, 2014

Change the Weather History Date:

Monday, May 12, 2014

  Actual Average Record
Temperature  
Mean Temperature 62 °F -  
Max Temperature 74 °F 83 °F 95 °F (2006)
Min Temperature 50 °F 55 °F 42 °F (2011)
Degree Days  
Heating Degree Days 3    
Growing Degree Days 12 (Base 50)    
Moisture  
Dew Point 14 °F    
Average Humidity 16    
Maximum Humidity 28    
Minimum Humidity 6    
Precipitation  
Precipitation 0.00 in - - ()
Sea Level Pressure  
Sea Level Pressure 30.00 in    
Wind  
Wind Speed 11 mph (WNW)    
Max Wind Speed 20 mph    
Max Gust Speed 26 mph    
Visibility 10 miles    
Events      
Averages and records for this station are not official NWS values.
T = Trace of Precipitation, MM = Missing Value Source: NWS Daily Summary

Daily Weather History Graph

Daily Weather History Graph

Search for Another Location

Airport or City:

Trip Planner

Search our weather history database for the weather conditions in past years. The results will help you decide how hot, cold, wet, or windy it might be!

Date:

Astronomy

May. 12, 2014 Rise Set
Actual Time 6:11 AM MDT 7:56 PM MDT
Civil Twilight 5:45 AM MDT 8:23 PM MDT
Nautical Twilight 5:12 AM MDT 8:55 PM MDT
Astronomical Twilight 4:38 AM MDT 9:29 PM MDT
Moon 6:04 PM MDT (5/12) 4:44 AM MDT (5/12)
Length of Visible Light 14h 38m
Length of Day
13h 44m
Waxing Gibbous, 95% of the Moon is Illuminated
May 12
Waxing Gibbous
May 14
Full
May 21
Last Quarter
May 28
New
Jun 5
First Quarter

Hourly Weather History & Observations

Time (MDT) Temp. Dew Point Humidity Pressure Visibility Wind Dir Wind Speed Gust Speed Precip Events Conditions
12:15 AM 61.0 °F 15.8 °F 17% 29.91 in 10.0 mi WNW 10.4 mph - N/A   Scattered Clouds
12:35 AM 62.2 °F 15.8 °F 16% 29.91 in 10.0 mi West 12.7 mph - N/A   Clear
12:55 AM 61.9 °F 16.2 °F 17% 29.92 in 10.0 mi West 15.0 mph 21.9 mph N/A   Clear
1:15 AM 61.3 °F 16.3 °F 17% 29.93 in 10.0 mi WNW 13.8 mph - N/A   Clear
1:35 AM 60.3 °F 16.2 °F 18% 29.93 in 10.0 mi West 11.5 mph - N/A   Clear
1:55 AM 59.5 °F 15.8 °F 18% 29.93 in 10.0 mi West 13.8 mph - N/A   Clear
2:15 AM 58.3 °F 15.6 °F 19% 29.93 in 10.0 mi West 10.4 mph - N/A   Clear
2:35 AM 57.7 °F 15.1 °F 19% 29.93 in 10.0 mi West 6.9 mph - N/A   Clear
2:55 AM 55.8 °F 14.9 °F 20% 29.93 in 10.0 mi West 10.4 mph - N/A   Clear
3:15 AM 54.7 °F 14.4 °F 20% 29.93 in 10.0 mi West 9.2 mph - N/A   Clear
3:35 AM 55.0 °F 13.8 °F 20% 29.94 in 10.0 mi West 9.2 mph - N/A   Clear
3:55 AM 53.6 °F 13.1 °F 20% 29.95 in 10.0 mi WSW 8.1 mph - N/A   Clear
4:15 AM 51.8 °F 12.7 °F 21% 29.95 in 10.0 mi NW 5.8 mph - N/A   Clear
4:35 AM 52.3 °F 12.9 °F 21% 29.95 in 10.0 mi North 3.5 mph - N/A   Clear
4:55 AM 50.2 °F 13.3 °F 23% 29.97 in 10.0 mi Calm Calm - N/A   Clear
5:15 AM 52.7 °F 14.4 °F 22% 29.97 in 10.0 mi NNE 4.6 mph - N/A   Clear
5:35 AM 52.9 °F 17.2 °F 25% 29.97 in 10.0 mi North 5.8 mph - N/A   Clear
5:55 AM 52.7 °F 18.5 °F 26% 29.98 in 10.0 mi North 9.2 mph - N/A   Clear
6:15 AM 52.3 °F 19.4 °F 27% 29.99 in 10.0 mi North 9.2 mph - N/A   Clear
6:35 AM 52.7 °F 19.9 °F 28% 29.99 in 10.0 mi North 8.1 mph - N/A   Clear
6:55 AM 54.5 °F 20.8 °F 27% 30.00 in 10.0 mi North 11.5 mph 21.9 mph N/A   Clear
7:15 AM 55.4 °F 21.0 °F 26% 30.01 in 10.0 mi North 13.8 mph 19.6 mph N/A   Clear
7:35 AM 55.6 °F 21.0 °F 26% 30.02 in 10.0 mi North 12.7 mph 16.1 mph N/A   Scattered Clouds
8:15 AM 56.5 °F 21.9 °F 26% 30.04 in 10.0 mi North 16.1 mph 21.9 mph N/A   Overcast
8:35 AM 57.2 °F 22.1 °F 26% 30.04 in 10.0 mi North 15.0 mph 20.7 mph N/A   Scattered Clouds
8:55 AM 58.5 °F 22.3 °F 25% 30.05 in 10.0 mi North 12.7 mph - N/A   Scattered Clouds
9:15 AM 59.4 °F 23.0 °F 25% 30.06 in 10.0 mi North 12.7 mph 18.4 mph N/A   Clear
9:35 AM 60.6 °F 22.3 °F 23% 30.07 in 10.0 mi North 11.5 mph 16.1 mph N/A   Scattered Clouds
9:55 AM 61.3 °F 22.3 °F 22% 30.07 in 10.0 mi NE 11.5 mph 17.3 mph N/A   Clear
10:15 AM 62.2 °F 21.9 °F 21% 30.07 in 10.0 mi NNE 11.5 mph 17.3 mph N/A   Clear
10:35 AM 63.3 °F 20.7 °F 19% 30.07 in 10.0 mi North 5.8 mph - N/A   Clear
10:55 AM 64.0 °F 18.7 °F 17% 30.08 in 10.0 mi WNW 8.1 mph - N/A   Clear
11:15 AM 64.9 °F 19.2 °F 17% 30.08 in 10.0 mi NW 3.5 mph - N/A   Clear
11:35 AM 65.5 °F 19.9 °F 18% 30.07 in 10.0 mi WNW 3.5 mph - N/A   Clear
11:55 AM 66.4 °F 19.6 °F 17% 30.07 in 10.0 mi West 9.2 mph - N/A   Clear
12:15 PM 67.5 °F 18.7 °F 16% 30.07 in 10.0 mi WSW 11.5 mph 18.4 mph N/A   Clear
12:35 PM 68.0 °F 18.0 °F 15% 30.06 in 10.0 mi WSW 5.8 mph - N/A   Clear
12:55 PM 70.0 °F 17.2 °F 13% 30.05 in 10.0 mi West 18.4 mph 21.9 mph N/A   Clear
1:35 PM 71.1 °F 15.3 °F 12% 30.05 in 10.0 mi WNW 10.4 mph 18.4 mph N/A   Clear
1:55 PM 70.9 °F 17.4 °F 13% 30.04 in 10.0 mi NW 5.8 mph - N/A   Clear
2:15 PM 71.8 °F 14.7 °F 11% 30.04 in 10.0 mi SW 12.7 mph 19.6 mph N/A   Clear
2:35 PM 71.1 °F 14.2 °F 11% 30.03 in 10.0 mi West 13.8 mph 17.3 mph N/A   Clear
2:55 PM 72.5 °F 11.1 °F 9% 30.02 in 10.0 mi West 10.4 mph 25.3 mph N/A   Clear
3:15 PM 73.2 °F 11.5 °F 9% 30.01 in 10.0 mi West 6.9 mph 20.7 mph N/A   Clear
3:35 PM 74.5 °F 12.2 °F 9% 30.00 in 10.0 mi West 18.4 mph 26.5 mph N/A   Clear
3:55 PM 74.1 °F 12.4 °F 9% 29.99 in 10.0 mi West 8.1 mph 20.7 mph N/A   Clear
4:15 PM 74.3 °F 9.9 °F 8% 29.99 in 10.0 mi West 17.3 mph 26.5 mph N/A   Clear
4:35 PM 74.3 °F 8.6 °F 8% 29.98 in 10.0 mi WSW 13.8 mph 24.2 mph N/A   Clear
4:55 PM 74.3 °F 8.4 °F 8% 29.98 in 10.0 mi WSW 10.4 mph 17.3 mph N/A   Clear
5:15 PM 74.8 °F 5.9 °F 7% 29.98 in 10.0 mi West 16.1 mph 23.0 mph N/A   Clear
5:35 PM 74.7 °F 5.5 °F 7% 29.97 in 10.0 mi West 8.1 mph 18.4 mph N/A   Clear
5:55 PM 74.8 °F 2.8 °F 6% 29.97 in 10.0 mi WSW 19.6 mph 24.2 mph N/A   Clear
6:15 PM 74.3 °F 5.5 °F 7% 29.97 in 10.0 mi WSW 16.1 mph 23.0 mph N/A   Clear
6:35 PM 73.6 °F 2.7 °F 6% 29.97 in 10.0 mi West 16.1 mph 21.9 mph N/A   Clear
6:55 PM 73.0 °F 3.0 °F 6% 29.98 in 10.0 mi WSW 16.1 mph - N/A   Clear
7:15 PM 71.8 °F 4.6 °F 7% 29.98 in 10.0 mi West 13.8 mph 20.7 mph N/A   Clear
7:35 PM 70.7 °F 4.5 °F 7% 29.99 in 10.0 mi West 15.0 mph 19.6 mph N/A   Clear
7:55 PM 69.1 °F 6.8 °F 9% 30.00 in 10.0 mi West 11.5 mph - N/A   Clear
8:15 PM 66.9 °F 6.3 °F 9% 30.00 in 10.0 mi West 10.4 mph - N/A   Clear
8:35 PM 66.2 °F 6.8 °F 10% 30.01 in 10.0 mi WSW 10.4 mph - N/A   Clear
8:55 PM 65.1 °F 6.4 °F 10% 30.02 in 10.0 mi WSW 10.4 mph - N/A   Clear
9:15 PM 63.5 °F 5.9 °F 10% 30.02 in 10.0 mi WSW 11.5 mph - N/A   Clear
9:35 PM 64.2 °F 5.7 °F 10% 30.03 in 10.0 mi West 11.5 mph - N/A   Clear
9:55 PM 64.2 °F 5.9 °F 10% 30.03 in 10.0 mi West 12.7 mph - N/A   Clear
10:15 PM 65.7 °F 7.2 °F 10% 30.05 in 10.0 mi WNW 17.3 mph 23.0 mph N/A   Clear
10:55 PM 62.2 °F 10.6 °F 13% 30.08 in 10.0 mi NW 8.1 mph - N/A   Clear
11:15 PM 61.3 °F 20.7 °F 21% 30.09 in 10.0 mi NW 9.2 mph - N/A   Clear
11:35 PM 61.0 °F 21.7 °F 22% 30.09 in 10.0 mi NNW 12.7 mph - N/A   Clear